Powrót do katalogu

STARLINK-11427

AktywnyŁącznośćVLEO
NORAD 62063·PAYLOAD·🇺🇸 United States

Wystrzelony Nov 24, 2024 z Vandenberg Space Force Base

Loading…

Następne Przeloty (najbliższe 24 godziny)

TLE

ŚwieżeSource: CelesTrak SupGP

Epoka: Sep 14, 2026, 14:46 UTC

1 62063C 24217G   26257.61576389 -.00063237  00000+0 -52094-3 0  2572
2 62063  53.1574 220.1061 0001273  85.8117 285.8957 15.69738843    18

Śledź STARLINK-11427 w czasie rzeczywistym z AllMySat

Download on the App Store